Date,TemperatureHighF,TemperatureAvgF,TemperatureLowF,DewpointHighF,DewpointAvgF,DewpointLowF,HumidityHigh,HumidityAvg,HumidityLow,PressureMaxIn,PressureMinIn,WindSpeedMaxMPH,WindSpeedAvgMPH,GustSpeedMaxMPH,PrecipitationSumIn
2013-1-1,29,18,7,24,9,-4,85,66,53,29.91,27.28,44,16,44,0.00
2013-1-2,20,9,-6,12,1,-12,91,72,61,30.16,27.28,40,14,41,0.00
2013-1-3,14,2,-12,10,-7,-51,83,66,32,30.19,27.28,18,4,18,0.00
2013-1-4,32,26,14,21,18,9,89,70,63,29.90,27.28,55,15,55,0.00
2013-1-5,29,24,13,20,12,4,76,61,50,30.21,27.28,41,12,41,0.00
2013-1-6,37,29,14,31,23,7,90,78,73,30.19,27.28,26,6,26,0.00
2013-1-7,33,20,6,27,14,3,88,77,54,30.34,27.28,26,9,26,0.00
2013-1-8,38,22,6,36,11,-37,95,65,18,30.35,27.28,38,8,38,0.02
2013-1-9,42,34,18,35,21,-38,96,61,4,30.35,27.28,61,12,61,0.01
2013-1-10,39,31,22,25,18,11,83,59,51,30.52,30.01,53,15,53,0.00
2013-1-11,40,31,19,35,22,-54,88,71,47,30.53,30.11,28,8,28,0.02
2013-1-12,52,38,30,45,33,27,91,84,77,30.14,30.06,16,4,16,0.05
2013-1-13,55,40,31,51,37,29,92,88,74,30.12,29.91,13,4,13,0.00
2013-1-14,50,38,28,47,29,13,90,71,47,30.24,29.84,44,10,44,0.00
2013-1-15,29,28,26,21,19,17,77,68,67,30.27,30.23,13,4,13,0.00
2013-1-16,32,30,27,29,26,22,91,87,77,30.25,29.80,24,5,25,0.00
2013-1-17,34,24,10,31,12,-62,97,63,1,30.12,29.79,36,13,36,0.00
2013-1-18,16,8,-7,12,-6,-59,92,54,17,30.32,27.28,34,8,38,0.00
2013-1-19,43,30,13,27,13,-46,79,52,24,30.24,27.28,34,8,35,0.01
2013-1-20,43,31,14,32,12,-43,95,45,37,29.92,27.28,58,20,58,0.00
2013-1-21,27,17,9,21,3,-53,93,56,21,30.02,27.28,36,9,36,0.00
2013-1-22,20,11,3,14,3,-72,94,73,1,30.01,27.28,30,9,32,0.00
2013-1-23,4,-3,-10,-3,-19,-73,95,47,2,30.10,27.28,40,14,44,0.00
2013-1-24,8,-2,-13,5,-22,-77,96,43,2,30.25,27.28,45,12,45,0.00
2013-1-25,14,4,-8,7,-13,-64,90,47,27,30.33,30.04,26,8,27,0.00
2013-1-26,12,6,1,7,-4,-77,94,65,1,30.24,30.01,33,10,34,0.00
2013-1-27,17,8,2,12,-3,-70,94,64,6,30.45,30.24,30,9,30,0.00
2013-1-28,29,18,6,27,12,-58,97,75,34,30.44,29.95,21,5,21,0.00
2013-1-29,39,30,22,35,24,-55,94,80,20,30.13,29.95,28,7,28,0.01
2013-1-30,56,44,34,49,40,30,89,83,75,30.01,27.28,29,10,29,0.07
2013-1-31,47,34,22,44,25,-50,97,69,12,29.52,27.28,58,19,58,0.36
2013-2-1,23,17,11,17,6,-4,81,60,46,30.03,27.28,41,17,42,0.00
2013-2-2,28,16,4,15,6,-8,88,65,52,30.14,27.28,24,6,27,0.00
2013-2-3,30,17,5,21,8,2,91,70,47,30.00,27.28,15,4,15,0.00
2013-2-4,22,16,10,11,1,-9,74,54,35,29.87,27.28,38,16,40,0.00
2013-2-5,24,14,3,11,2,-7,74,59,42,29.98,27.28,23,6,23,0.00
2013-2-6,33,22,10,24,11,-9,80,63,35,30.30,27.28,41,12,41,0.00
2013-2-7,23,13,4,10,-1,-11,69,53,40,30.52,30.30,26,6,87,0.00
2013-2-8,27,22,18,20,14,1,92,70,43,30.37,29.83,31,10,33,0.00
2013-2-9,19,9,5,17,1,-10,92,71,47,30.29,29.80,53,20,53,0.00
2013-2-10,28,12,-2,12,1,-38,87,64,7,30.45,30.27,20,6,20,0.00
2013-2-11,45,29,11,40,19,-8,96,67,28,30.27,29.61,30,7,30,0.05
2013-2-12,39,32,28,36,23,-36,97,68,42,29.84,29.62,48,18,48,0.00
2013-2-13,40,30,22,25,18,-35,69,61,46,29.83,27.28,23,7,23,0.00
2013-2-14,38,27,16,26,17,-20,81,65,37,29.93,29.71,22,5,22,0.00
2013-2-15,47,33,24,35,20,-33,90,62,4,29.93,29.85,36,8,36,0.01
2013-2-16,32,25,16,25,15,-26,91,66,34,29.97,29.84,23,9,23,0.00
2013-2-17,17,11,5,10,-2,-72,96,57,7,29.84,29.61,46,22,46,0.00
2013-2-18,22,11,1,2,-7,-61,97,46,28,30.11,29.77,40,16,42,0.00
2013-2-19,43,27,9,31,13,-4,89,59,33,30.11,29.59,37,8,37,0.00
2013-2-20,32,24,19,30,17,-46,98,78,3,29.74,27.28,38,12,38,0.00
2013-2-21,22,16,11,15,7,-52,95,67,39,30.28,27.28,39,17,39,0.00
2013-2-22,43,28,14,38,20,-29,96,72,41,30.39,27.28,20,5,20,0.02
2013-2-23,35,32,29,30,24,15,86,73,54,30.23,27.28,28,10,28,0.00
2013-2-24,45,33,26,38,29,23,93,84,74,29.91,27.28,24,6,24,0.04
2013-2-25,37,30,26,31,26,22,92,86,74,30.21,27.28,16,5,17,0.01
2013-2-26,47,35,24,41,28,-17,92,77,6,30.28,27.28,26,7,26,0.00
2013-2-27,40,34,30,34,28,22,92,80,69,30.12,27.28,48,10,48,0.03
2013-2-28,48,36,29,41,29,22,86,76,69,29.61,29.55,10,1,10,0.10
2013-3-1,36,30,26,31,23,19,94,77,56,29.73,29.55,31,12,31,0.01
2013-3-2,30,26,21,26,21,15,92,83,67,29.73,29.69,29,14,29,0.00
2013-3-3,27,23,19,22,19,14,90,85,73,29.72,29.65,23,10,23,0.00
2013-3-4,34,24,19,27,16,-6,91,74,54,29.85,29.67,34,16,35,0.00
2013-3-5,40,26,21,33,20,-56,92,77,1,30.07,29.85,23,8,23,0.02
2013-3-6,41,33,24,36,25,-5,92,72,53,30.15,30.05,47,10,47,0.01
2013-3-7,40,30,25,25,20,-39,90,67,3,30.14,30.09,22,9,22,0.00
2013-3-8,37,27,21,32,21,-57,96,80,58,30.28,30.08,26,8,27,0.02
2013-3-9,47,27,11,27,17,-57,88,69,40,30.33,30.26,22,7,22,0.05
2013-3-10,58,38,18,50,19,-60,96,51,1,30.33,30.17,26,7,26,0.00
2013-3-11,55,42,32,50,26,-33,95,53,2,30.20,30.00,18,5,19,0.00
2013-3-12,50,43,34,47,38,24,89,83,56,30.01,29.67,29,10,29,0.46
2013-3-13,47,36,28,35,23,-36,96,61,21,29.83,29.73,24,10,25,0.00
2013-3-14,32,23,13,26,12,-47,92,63,12,29.86,29.73,39,14,39,0.00
2013-3-15,42,23,8,30,13,-49,89,68,4,29.88,29.58,40,12,40,0.00
2013-3-16,34,24,14,28,11,-51,97,59,16,29.85,29.68,33,10,33,0.00
2013-3-17,28,18,10,17,5,-56,94,59,2,30.29,29.85,37,11,59,0.00
2013-3-18,45,21,2,28,0,-65,96,45,2,30.40,30.14,31,8,31,0.00
2013-3-19,33,26,22,29,21,-34,100,83,5,30.14,29.69,29,8,29,0.00
2013-3-20,42,25,16,31,16,-50,96,69,33,29.74,27.28,37,8,37,0.02
2013-3-21,49,26,9,42,12,-61,91,57,1,29.75,27.28,25,8,25,0.01
2013-3-22,43,25,3,29,15,-65,97,67,2,29.75,29.63,30,10,31,0.00
2013-3-23,37,29,22,30,15,-62,95,58,1,29.80,29.67,54,18,55,0.00
2013-3-24,38,30,23,32,17,-49,95,59,29,29.85,29.77,39,12,39,0.00
2013-3-25,49,34,21,34,23,-33,83,65,43,29.78,29.54,28,6,28,0.00
2013-3-26,42,32,24,36,21,-27,95,65,8,29.81,29.59,36,10,36,0.00
2013-3-27,45,33,18,41,19,-40,94,58,8,29.91,29.79,31,11,31,0.00
2013-3-28,47,36,31,39,28,-39,93,73,3,30.05,29.91,26,8,26,0.00
2013-3-29,50,37,27,45,30,-39,95,77,28,30.08,30.02,23,6,23,0.01
2013-3-30,50,35,24,44,21,-49,96,62,2,30.10,27.75,29,8,29,0.00
2013-3-31,62,40,22,49,21,-16,90,51,5,30.10,29.75,28,8,28,0.11
2013-4-1,53,36,25,48,27,1,95,73,33,29.79,29.53,46,11,46,0.15
2013-4-2,35,26,19,14,5,-28,69,41,29,29.89,29.78,61,21,61,0.00
2013-4-3,36,27,20,13,3,-48,69,37,24,30.16,27.28,51,24,51,0.00
2013-4-4,49,33,21,20,11,-37,68,42,5,30.27,27.28,26,9,35,0.00
2013-4-5,52,36,26,42,17,-51,97,48,1,29.96,27.28,50,11,50,0.00
2013-4-6,38,28,19,19,6,-56,64,40,21,30.27,27.28,45,16,45,0.00
2013-4-7,60,42,24,55,16,-13,92,36,20,30.27,27.28,40,9,40,0.00
2013-4-8,57,45,39,38,27,14,65,51,32,30.13,27.28,34,9,35,0.00
2013-4-9,59,48,40,47,35,19,87,63,43,30.03,27.28,44,11,44,0.02
2013-4-10,56,45,39,54,39,28,93,80,64,30.00,27.28,18,4,18,0.38
2013-4-11,41,34,30,38,28,17,90,76,59,30.14,29.90,24,6,24,0.02
2013-4-12,36,33,30,32,26,20,84,78,63,30.15,29.79,33,12,33,0.00
2013-4-13,52,39,32,42,31,25,92,73,52,29.92,29.80,21,6,26,0.20
2013-4-14,45,37,27,39,29,16,93,75,48,30.21,29.90,26,8,26,0.01
2013-4-15,61,44,25,40,27,-32,92,58,27,30.34,30.21,26,7,27,0.00
2013-4-16,69,51,36,52,37,17,83,58,41,30.28,29.99,46,10,46,0.05
2013-4-17,52,44,33,46,28,13,83,54,34,30.32,30.05,37,13,39,0.00
2013-4-18,67,46,28,41,25,11,60,45,35,30.36,30.05,36,10,36,0.00
2013-4-19,77,62,48,59,49,22,73,61,36,30.05,29.50,37,12,37,0.02
2013-4-20,51,41,30,36,23,9,74,49,39,30.24,29.50,50,21,50,0.02
2013-4-21,43,32,25,100,11,-36,90,42,9,30.66,30.24,39,14,39,0.00
2013-4-22,57,40,23,50,16,-22,98,39,23,30.71,30.53,30,10,30,0.00
2013-4-23,52,40,30,40,30,16,78,67,53,30.57,30.18,28,10,28,0.00
2013-4-24,77,55,37,49,37,26,91,58,26,30.18,29.70,28,7,28,0.00
2013-4-25,59,44,30,40,26,7,66,49,30,30.27,29.70,38,14,38,0.00
2013-4-26,59,42,27,33,23,12,63,47,36,30.44,30.27,23,8,23,0.00
2013-4-27,60,44,28,43,26,11,91,54,28,30.44,27.28,26,7,27,0.00
2013-4-28,72,51,30,39,27,15,65,42,25,30.31,27.28,22,6,22,0.00
2013-4-29,73,56,43,52,34,22,55,43,37,30.22,27.28,28,6,28,0.00
2013-4-30,76,59,47,51,37,27,61,44,36,30.30,27.28,20,4,20,0.00
2013-5-1,75,56,36,68,23,-22,81,30,2,30.44,27.28,23,6,23,0.00
2013-5-2,81,59,39,49,32,0,63,39,23,30.46,27.28,28,8,28,0.00
2013-5-3,70,54,39,60,31,-36,95,43,9,30.51,27.28,31,9,31,0.00
2013-5-4,74,56,37,52,32,-1,78,46,17,30.37,27.28,24,7,24,0.00
2013-5-5,74,56,34,51,25,-19,96,33,13,30.29,30.15,29,6,29,0.00
2013-5-6,78,57,35,46,29,-12,65,38,4,30.24,30.08,22,6,22,0.00
2013-5-7,82,60,40,59,37,-7,75,47,15,30.17,30.03,22,6,22,0.00
2013-5-8,78,60,45,61,49,26,87,67,39,30.18,30.04,26,5,26,0.16
2013-5-9,75,61,47,63,52,44,93,74,48,30.04,29.87,18,5,19,0.14
2013-5-10,78,61,46,65,50,37,93,70,43,29.98,29.86,21,5,21,0.00
2013-5-11,82,63,54,70,50,38,87,63,52,29.86,29.65,28,4,28,0.17
2013-5-12,63,51,39,50,37,14,65,59,45,29.80,29.63,32,9,32,0.00
2013-5-13,52,41,34,39,28,17,63,58,50,30.01,29.80,46,13,46,0.00
2013-5-14,52,41,29,40,28,12,63,58,50,30.10,30.00,31,7,31,0.00
2013-5-15,58,44,28,46,30,14,74,57,53,30.04,29.63,25,5,25,0.05
2013-5-16,74,58,44,62,44,29,66,60,49,29.85,29.65,51,15,51,0.00
2013-5-17,61,49,39,48,35,24,64,59,50,30.22,29.85,43,12,43,0.00
2013-5-18,70,52,34,56,38,18,65,59,51,30.31,30.21,28,6,28,0.00
2013-5-19,74,54,40,62,40,24,80,59,49,30.30,30.17,16,4,17,0.08
2013-5-20,76,61,52,63,47,34,66,60,51,30.17,29.97,22,4,22,0.00
2013-5-21,84,66,52,72,53,35,68,61,51,29.99,29.85,37,6,37,0.48
2013-5-22,84,66,51,72,52,35,68,61,51,29.89,29.81,45,6,84,0.11
2013-5-23,84,70,58,72,56,42,68,62,52,29.83,29.75,46,6,94,0.01
2013-5-24,62,48,39,48,34,22,61,58,51,29.97,29.67,32,11,32,0.35
2013-5-25,41,38,33,38,26,16,93,63,49,29.97,27.28,96,15,96,0.28
2013-5-26,48,38,33,36,28,16,93,67,48,30.10,27.28,55,16,93,0.05
2013-5-27,64,47,30,52,34,14,93,59,50,30.18,27.28,28,8,28,0.00
2013-5-28,79,56,33,67,43,18,67,60,51,30.24,27.28,31,4,31,0.00
2013-5-29,74,60,53,62,45,35,66,58,50,30.13,27.28,21,5,21,0.08
2013-5-30,87,71,58,74,57,40,82,60,51,30.10,27.28,33,8,33,0.00
2013-5-31,89,73,56,77,59,40,82,61,55,30.12,27.28,43,5,43,0.00
2013-6-1,92,76,61,79,61,45,67,59,40,29.98,27.28,29,6,30,0.00
2013-6-2,93,73,62,80,59,46,93,62,56,29.86,29.69,52,6,52,0.31
2013-6-3,72,62,49,63,49,33,93,62,51,29.88,29.81,55,8,55,0.00
2013-6-4,65,52,41,52,38,25,81,59,47,30.12,29.88,28,9,28,0.00
2013-6-5,71,55,39,58,42,24,65,60,54,30.21,27.28,22,5,22,0.00
2013-6-6,78,60,45,65,46,28,66,59,45,30.18,30.07,22,4,22,0.07
2013-6-7,56,51,47,50,37,32,87,60,54,30.10,29.88,18,5,19,0.41
2013-6-8,67,56,48,59,42,33,93,61,54,30.03,29.76,64,8,81,0.23
2013-6-9,76,61,51,63,47,35,87,60,55,30.19,30.03,22,3,46,0.00
2013-6-10,78,60,46,66,46,30,82,60,54,30.21,29.97,15,3,66,0.09
2013-6-11,64,56,53,51,42,37,63,58,55,29.97,29.58,24,4,24,0.49
2013-6-12,64,56,48,52,43,32,93,63,54,29.86,27.28,38,11,52,0.05
2013-6-13,65,54,42,58,40,27,93,61,53,29.86,28.55,29,3,29,0.11
2013-6-14,73,59,48,60,46,32,93,63,54,29.84,27.28,57,6,65,0.00
2013-6-15,74,59,42,61,45,27,66,61,54,29.98,27.28,24,7,24,0.00
2013-6-16,79,60,45,66,46,30,66,60,54,29.96,29.72,25,5,26,0.03
2013-6-17,79,63,51,67,49,35,77,60,55,29.92,27.28,34,7,59,0.08
2013-6-18,64,57,49,57,43,34,93,60,55,30.00,27.28,25,2,62,0.05
2013-6-19,65,53,40,53,40,25,93,60,54,30.09,27.28,23,6,23,0.01
2013-6-20,75,58,39,62,45,24,66,60,41,30.09,30.09,30,5,30,0.00
2013-6-21,82,65,47,69,51,28,66,61,55,30.09,30.09,24,5,24,0.00
2013-6-22,88,70,51,75,56,36,88,61,50,30.15,27.28,25,4,26,0.00
2013-6-23,95,73,61,81,59,45,88,63,52,30.13,29.98,30,5,34,0.24
2013-6-24,93,72,62,84,59,46,88,64,56,30.04,30.04,37,5,89,0.08
2013-6-25,91,72,60,86,60,44,88,65,56,30.04,30.04,29,4,29,0.14
2013-6-26,78,67,61,74,54,45,93,64,55,30.04,29.81,44,2,85,0.28
2013-6-27,85,71,56,75,57,41,93,62,54,29.84,29.74,20,2,82,0.01
2013-6-28,83,69,59,79,55,43,93,62,54,29.74,29.46,43,6,43,0.35
2013-6-29,87,72,60,80,58,45,93,62,55,29.69,29.50,24,4,52,0.10
2013-6-30,90,73,58,76,59,42,67,61,56,29.93,29.69,31,3,31,0.00
2013-7-1,87,71,61,81,56,45,88,60,56,30.07,29.93,40,2,54,0.58
2013-7-2,90,72,62,83,58,38,93,60,45,30.15,30.05,30,3,76,0.10
2013-7-3,87,74,64,79,60,48,85,60,56,30.20,27.57,83,4,83,0.01
2013-7-4,92,78,65,85,64,49,92,61,56,30.22,30.10,32,4,92,0.01
2013-7-5,92,77,67,84,63,51,88,61,56,30.18,30.07,60,5,84,0.08
2013-7-6,87,74,64,74,60,48,69,60,56,30.12,27.28,30,5,54,0.05
2013-7-7,90,73,61,81,59,45,89,60,56,30.07,27.28,45,3,95,0.17
2013-7-8,85,73,65,79,58,49,88,60,48,30.06,27.28,46,4,61,0.02
2013-7-9,88,73,63,86,58,46,95,60,55,30.10,27.28,50,3,50,0.35
2013-7-10,89,74,65,85,59,45,93,60,47,30.03,27.28,36,4,45,0.06
2013-7-11,82,70,59,74,56,43,85,60,42,30.01,29.78,38,6,38,0.00
2013-7-12,86,69,54,73,54,38,67,60,55,30.20,30.01,17,2,18,0.00
2013-7-13,85,70,55,73,56,39,67,61,55,30.32,27.28,37,3,48,0.00
2013-7-14,90,74,61,81,59,45,83,60,55,30.34,27.28,39,4,81,0.00
2013-7-15,88,74,62,74,60,46,68,60,56,30.27,30.15,28,6,28,0.00
2013-7-16,85,73,61,72,59,44,73,60,55,30.25,30.18,29,7,91,0.00
2013-7-17,93,78,61,79,63,45,66,61,55,30.23,30.03,34,6,35,0.00
2013-7-18,96,79,69,83,64,52,78,61,56,30.07,27.28,74,4,79,0.03
2013-7-19,93,80,67,80,66,51,82,61,56,29.98,27.28,46,9,46,0.16
2013-7-20,87,72,61,72,59,45,93,64,56,29.83,27.28,33,8,33,0.09
2013-7-21,81,66,55,67,55,40,93,67,53,30.02,27.28,46,4,46,0.00
2013-7-22,85,69,56,75,57,40,93,67,55,30.04,27.28,29,3,29,0.09
2013-7-23,79,68,62,74,58,44,93,70,54,29.88,27.28,17,3,47,0.53
2013-7-24,73,62,47,70,51,32,93,68,53,30.03,27.28,61,7,76,0.01
2013-7-25,79,58,42,63,46,26,93,64,51,30.13,27.28,18,4,19,0.00
2013-7-26,70,60,53,63,50,37,93,70,54,30.12,27.28,22,4,22,0.00
2013-7-27,86,65,47,74,53,32,93,66,54,30.07,27.28,20,3,20,0.00
2013-7-28,84,67,55,75,53,39,78,59,48,30.00,27.28,39,4,72,0.00
2013-7-29,80,69,56,67,54,40,93,60,52,30.10,27.28,29,5,72,0.01
2013-7-30,74,62,49,61,48,33,67,59,54,30.15,27.28,26,6,26,0.00
2013-7-31,83,65,50,69,50,34,65,60,55,30.17,27.28,31,4,31,0.00
2013-8-1,82,63,50,69,48,34,93,59,53,30.06,27.28,22,3,22,0.16
2013-8-2,82,66,56,69,52,40,78,59,52,29.87,27.28,25,6,25,0.00
2013-8-3,78,63,53,65,49,38,77,60,53,29.87,27.28,32,6,32,0.08
2013-8-4,72,59,49,64,47,34,93,65,55,29.95,27.28,72,6,72,0.04
2013-8-5,66,55,45,53,41,29,93,59,34,30.07,29.95,34,9,43,0.00
2013-8-6,79,60,43,66,46,28,93,61,46,30.14,30.07,14,3,14,0.00
2013-8-7,83,66,51,70,52,36,87,62,44,30.16,27.66,18,5,19,0.00
2013-8-8,89,73,62,76,60,46,88,63,55,30.06,27.28,16,4,16,0.00
2013-8-9,83,71,66,81,60,50,94,68,55,30.00,27.28,21,3,21,0.06
2013-8-10,73,65,51,64,52,36,93,64,40,30.06,27.28,34,9,35,0.01
2013-8-11,79,60,44,66,46,29,77,59,55,30.12,30.01,21,5,21,0.00
2013-8-12,80,63,50,66,49,34,65,60,55,30.05,29.93,21,5,22,0.00
2013-8-13,70,61,54,63,46,38,93,58,54,29.93,27.29,44,2,52,0.25
2013-8-14,69,57,47,56,42,32,93,59,54,29.98,27.30,32,7,47,0.02
2013-8-15,48,45,43,42,30,28,93,56,54,30.02,27.28,6,2,6,0.00
2013-8-16,77,65,51,64,51,36,66,60,55,30.21,30.02,23,6,23,0.00
2013-8-17,76,60,46,62,46,30,65,59,55,30.31,30.21,21,4,21,0.00
2013-8-18,81,64,50,69,50,35,77,60,55,30.29,30.12,41,2,76,0.00
2013-8-19,78,64,50,64,49,34,64,59,53,30.12,29.99,38,5,38,0.00
2013-8-20,80,65,51,67,51,35,65,60,55,30.12,30.03,22,4,22,0.00
2013-8-21,84,68,54,72,54,38,73,60,55,30.19,30.05,39,5,39,0.00
2013-8-22,87,70,56,74,55,40,66,60,55,30.05,29.84,21,4,21,0.11
2013-8-23,69,61,47,60,46,31,77,59,53,30.18,29.88,25,8,87,0.00
2013-8-24,74,56,42,61,41,26,82,58,40,30.36,27.28,17,4,17,0.00
2013-8-25,76,60,44,64,46,28,93,60,43,30.39,30.18,22,4,22,0.00
2013-8-26,79,67,59,69,53,43,93,62,45,30.18,27.28,24,5,24,0.04
2013-8-27,81,69,61,73,56,42,93,65,45,29.95,29.89,44,3,44,0.00
2013-8-28,89,70,57,75,56,41,93,62,54,29.98,29.86,20,3,53,0.05
2013-8-29,83,67,56,70,54,40,93,62,55,30.08,29.98,33,2,57,0.00
2013-8-30,83,69,59,69,55,43,93,61,55,30.03,29.83,20,4,21,0.00
2013-8-31,84,71,64,80,57,47,94,62,48,29.83,29.77,46,2,97,0.04
2013-9-1,85,73,66,82,58,41,94,61,44,29.89,29.82,45,3,74,0.00
2013-9-2,89,72,62,84,58,41,93,61,43,29.86,29.57,39,3,66,0.18
2013-9-3,75,65,58,67,50,41,82,59,55,29.84,29.74,41,5,48,0.00
2013-9-4,74,64,54,62,50,38,82,60,53,29.93,29.83,47,9,97,0.00
2013-9-5,63,55,41,55,41,26,93,59,54,30.18,29.88,31,8,31,0.08
2013-9-6,63,48,34,50,34,19,64,58,54,30.27,30.12,20,4,20,0.00
2013-9-7,75,56,43,62,42,27,65,59,54,30.12,27.28,22,5,22,0.00
2013-9-8,58,53,39,45,38,24,64,58,53,30.11,27.28,38,10,38,0.00
2013-9-9,70,50,34,57,36,19,66,58,54,30.23,27.28,18,4,19,0.00
2013-9-10,77,60,47,67,45,32,82,57,54,30.11,27.28,43,3,51,0.06
2013-9-11,93,77,60,82,62,40,93,60,55,30.08,27.28,45,8,97,0.10
2013-9-12,63,63,63,100,55,47,57,48,56,29.95,29.95,4,1,4,0.60
2013-9-13,59,54,48,57,39,32,93,57,48,29.95,27.28,51,13,90,0.21
2013-9-14,59,50,43,45,36,25,69,57,53,30.08,27.28,80,10,92,0.00
2013-9-15,65,50,36,53,37,17,93,59,44,30.17,27.28,64,4,74,0.00
2013-9-16,57,47,33,48,33,18,93,57,50,30.30,27.28,43,7,67,0.05
2013-9-17,59,42,29,46,28,14,63,57,52,30.47,27.28,26,5,27,0.00
2013-9-18,67,48,34,54,34,14,93,59,48,30.36,27.28,36,5,36,0.00
2013-9-19,72,52,38,59,38,23,64,58,54,30.18,27.28,18,4,19,0.00
2013-9-20,77,57,42,64,42,27,66,58,54,30.10,27.28,16,3,16,0.00
2013-9-21,75,59,47,61,44,32,72,58,44,29.98,27.28,36,7,48,0.04
2013-9-22,62,54,44,52,39,28,87,57,46,29.90,27.28,94,10,94,0.19
2013-9-23,51,43,37,37,29,21,61,57,52,30.05,27.28,33,12,33,0.00
2013-9-24,57,47,41,44,33,26,81,58,52,30.05,27.28,43,11,43,0.00
2013-9-25,62,48,35,49,34,18,93,58,48,29.99,27.28,39,6,52,0.00
2013-9-26,61,48,36,50,34,21,85,58,54,30.16,27.28,22,5,84,0.00
2013-9-27,62,47,37,51,33,22,93,58,54,30.31,30.16,17,3,17,0.00
2013-9-28,72,51,36,59,37,20,93,60,51,30.37,30.27,22,3,97,0.01
2013-9-29,73,52,38,61,38,23,77,58,54,30.28,30.08,28,3,77,0.00
2013-9-30,70,52,38,57,37,23,65,58,54,30.11,29.98,37,3,37,0.00
2013-10-1,70,53,39,58,39,24,65,58,54,30.03,29.90,24,5,24,0.00
2013-10-2,74,57,44,59,42,29,93,58,55,29.98,29.87,66,7,81,0.00
2013-10-3,69,53,40,56,39,25,65,58,55,30.12,27.28,18,4,85,0.00
2013-10-4,69,54,41,55,40,26,74,58,54,30.10,27.28,16,2,17,0.00
2013-10-5,68,57,53,54,42,36,93,58,53,30.14,27.28,14,2,14,0.00
2013-10-6,54,51,49,52,36,33,93,56,54,30.15,27.28,29,6,29,0.06
2013-10-7,72,58,50,58,43,33,62,58,53,30.11,27.28,32,12,32,0.02
2013-10-8,56,46,34,44,32,20,63,58,53,30.38,27.28,31,8,31,0.00
2013-10-9,62,43,30,49,29,14,64,57,50,30.47,27.28,18,5,18,0.00
2013-10-10,37,35,33,27,21,18,75,56,54,30.36,27.28,5,2,5,0.00
2013-10-15,66,58,48,51,43,32,62,58,54,30.34,30.15,16,4,17,0.00
2013-10-16,69,54,46,55,40,30,76,58,51,30.15,29.87,63,6,63,0.00
2013-10-17,64,55,47,53,40,31,75,58,54,29.87,27.28,28,6,28,0.04
2013-10-18,56,51,45,48,36,30,93,57,53,29.92,27.28,38,12,38,0.14
2013-10-19,64,49,36,51,35,21,72,57,53,29.93,27.28,31,6,31,0.00
2013-10-20,53,45,35,42,31,20,81,58,52,30.00,27.28,38,14,38,0.02
2013-10-21,63,45,29,50,31,14,64,57,52,30.09,27.28,26,5,26,0.00
2013-10-22,54,45,34,41,30,19,61,57,52,29.93,27.28,21,6,21,0.06
2013-10-23,50,38,29,37,23,14,62,56,52,29.80,27.28,22,5,22,0.02
2013-10-24,43,37,30,30,23,14,80,57,52,29.86,27.28,43,10,43,0.01
2013-10-25,42,36,32,30,22,17,64,57,52,30.11,29.86,33,12,33,0.00
2013-10-26,48,40,31,36,26,16,69,57,52,30.11,29.82,33,6,33,0.00
2013-10-27,49,40,30,36,26,15,69,57,53,30.03,29.78,37,10,37,0.00
2013-10-28,48,37,23,35,23,9,80,57,44,30.35,27.42,41,11,59,0.00
2013-10-29,40,27,18,27,14,3,85,56,38,30.45,30.35,22,5,22,0.00
2013-10-30,48,34,26,34,21,12,92,58,52,30.36,29.92,22,4,22,0.00
2013-10-31,55,42,28,41,28,13,61,56,52,30.22,27.28,24,5,25,0.18
2013-11-1,63,56,47,48,41,32,60,56,48,29.72,27.28,52,15,52,0.29
2013-11-2,60,44,34,46,30,19,63,57,52,29.83,27.28,24,8,24,0.00
2013-11-3,35,28,19,21,14,4,60,56,49,30.43,27.28,34,13,35,0.00
2013-11-4,35,24,16,23,10,1,60,56,51,30.65,27.28,17,5,17,0.00
2013-11-5,47,33,21,34,19,4,62,57,52,30.65,27.28,18,4,18,0.00
2013-11-6,57,44,31,44,30,17,63,58,54,30.47,27.28,28,6,28,0.00
2013-11-7,53,45,30,47,32,13,87,60,42,29.96,27.28,80,10,90,0.02
2013-11-8,42,32,24,34,18,9,86,58,41,30.08,29.84,38,12,38,0.00
2013-11-9,42,33,25,30,19,10,61,57,51,30.19,29.97,26,8,29,0.00
2013-11-10,47,38,29,37,24,15,86,59,48,29.97,29.72,45,11,45,0.00
2013-11-11,44,37,31,31,24,16,75,58,48,30.09,29.85,45,14,45,0.00
2013-11-12,38,25,20,27,12,5,80,56,50,30.20,29.85,29,14,29,0.00
2013-11-13,29,23,17,14,10,1,63,55,50,30.30,30.11,30,13,30,0.00
2013-11-14,41,32,28,28,18,9,61,56,52,30.11,30.03,34,10,35,0.00
2013-11-15,52,35,26,39,21,11,63,56,52,30.18,30.07,22,6,22,0.00
2013-11-16,52,39,29,40,24,14,62,56,51,30.28,30.17,22,6,22,0.00
2013-11-17,51,43,28,37,28,13,60,56,51,30.26,29.77,30,10,30,0.00
2013-11-18,56,49,38,50,35,22,87,59,46,29.77,27.28,95,10,97,0.00
2013-11-19,38,29,22,29,15,6,74,55,47,30.29,27.28,85,5,97,0.00
2013-11-20,31,26,23,24,16,6,85,64,47,30.61,27.28,97,12,97,0.00
2013-11-21,58,34,11,31,17,4,85,53,24,30.61,27.30,18,3,79,0.00
2013-11-22,45,38,32,42,34,13,93,86,39,30.37,27.28,85,2,85,0.00
2013-11-23,104,35,19,84,21,3,81,57,40,29.96,27.28,89,16,97,0.00
2013-11-24,25,14,8,19,0,-8,84,54,37,30.20,29.81,62,22,62,0.00
2013-11-25,102,16,2,74,2,-38,84,53,41,30.35,27.28,33,8,62,0.00
2013-11-26,102,29,20,38,18,4,86,62,48,30.25,30.00,45,6,85,0.00
2013-11-27,105,36,27,84,25,10,93,65,42,30.00,27.28,91,8,91,0.00
2013-11-28,27,17,9,13,4,-7,62,54,48,30.37,29.47,43,14,43,0.00
2013-11-29,20,11,4,8,-2,-11,78,54,48,30.71,30.37,24,6,33,0.00
2013-11-30,27,15,1,15,2,-14,60,54,48,30.73,27.28,23,7,23,0.00
2013-12-1,41,30,24,34,19,8,86,62,49,30.35,30.01,16,2,16,0.00
2013-12-2,44,38,27,42,33,11,93,80,50,30.01,27.28,96,3,96,0.00
2013-12-3,43,31,24,41,24,9,92,77,52,29.95,27.28,75,2,80,0.00
2013-12-4,32,32,32,30,25,19,92,75,59,30.06,27.28,0,0,0,0.00
2013-12-5,32,32,32,30,27,23,93,82,69,30.03,27.28,0,0,0,0.00
2013-12-6,32,32,32,30,26,20,93,78,60,29.99,27.28,0,0,0,0.00
2013-12-7,32,32,32,30,21,14,92,67,46,30.16,27.28,0,0,0,0.00
2013-12-8,32,32,32,24,19,15,73,59,49,30.49,27.28,0,0,0,0.00
2013-12-9,32,32,32,28,24,17,85,72,53,30.36,27.28,0,0,0,0.00
2013-12-10,32,32,32,23,17,8,69,54,36,29.88,27.28,13,12,13,0.00
2013-12-11,55,48,32,38,33,17,73,57,50,30.07,27.28,13,4,13,0.00
2013-12-12,55,55,55,38,38,38,53,53,53,30.07,30.07,0,0,0,0.00
2013-12-13,55,55,55,51,46,38,85,72,53,30.34,29.93,0,0,0,0.00
2013-12-14,55,55,55,53,47,33,92,74,43,30.55,30.11,0,0,0,0.00
2013-12-15,55,55,55,53,50,45,92,81,67,30.11,29.51,0,0,0,0.00
2013-12-16,55,55,55,49,41,32,79,61,40,29.97,29.67,0,0,0,0.00
2013-12-18,69,40,22,66,28,13,92,66,22,29.97,27.38,8,1,9,0.48
2013-12-19,38,31,24,28,22,17,85,69,46,28.55,28.39,5,2,17,0.00
2013-12-20,48,41,33,41,35,27,92,80,59,28.55,28.36,13,2,13,0.06
2013-12-21,55,46,33,50,43,32,97,90,78,28.40,28.33,10,3,11,0.35
2013-12-22,55,38,29,54,37,29,98,95,83,28.44,28.16,12,2,12,0.12
2013-12-23,43,38,29,42,37,24,98,96,80,28.62,28.43,10,2,11,0.13
2013-12-24,29,21,11,24,15,6,89,79,66,28.69,28.54,10,4,10,0.00
2013-12-25,17,10,2,7,2,-2,84,71,54,28.93,28.69,14,4,14,0.00
2013-12-26,29,22,16,24,16,4,87,78,59,28.82,28.53,10,3,11,0.00
2013-12-27,29,25,21,21,19,14,86,76,58,28.68,28.61,13,4,13,0.01
2013-12-28,41,32,21,30,25,17,93,76,57,28.62,28.44,20,5,20,0.02
2013-12-29,37,32,27,33,30,25,97,91,83,28.49,28.08,5,1,5,0.07
2013-12-30,34,20,1,32,14,-2,97,76,61,28.60,28.10,20,6,20,0.00
2013-12-31,18,9,0,12,4,-4,85,78,63,28.60,28.42,15,2,15,0.00
2014-1-1,18,11,5,7,4,0,86,74,55,28.79,28.56,12,3,12,0.00
2014-1-2,8,1,-10,2,-4,-16,82,78,73,28.79,28.34,6,2,6,0.00